Date_and_time,latitude,longitude,wind_speed,RelWindDirFrom,WindDirFrom,air_pressure,air_temperature,relative_humidity,Temp,platform_speed_wrt_ground,air_pressure_at_mean_sea_level,platform_orientation
2019-09-07 23:40,50.6304483333333,-96.980775,5.8,8.0,357,995.88,14.2,59,17.16,0.0,1022.60,90.0
2019-09-07 23:50,50.63045,-96.9807716666667,5.5,7.3,351,995.92,14.3,59,17.15,0.0,1022.63,90.0
2019-09-08 00:00,50.63045,-96.9807716666667,5.2,7.0,347,995.95,14.4,58,17.15,0.0,1022.65,43.8
2019-09-08 00:10,50.63045,-96.9807716666667,5.3,7.0,349,996.00,14.4,57,17.15,0.0,1022.69,43.8
2019-09-08 00:20,50.6304666666667,-96.9807766666667,4.4,6.2,344,996.05,14.5,56,17.14,0.0,1022.74,43.8
2019-09-08 00:30,50.6304633333333,-96.9807833333333,3.5,4.6,332,996.04,14.4,57,17.13,0.0,1022.73,43.8
2019-09-08 00:40,50.6304633333333,-96.9807733333333,3.0,4.4,325,996.03,14.1,58,17.13,0.0,1022.72,43.8
2019-09-08 00:50,50.6304583333333,-96.980775,2.8,4.1,321,996.04,13.9,59,17.13,0.0,1022.74,43.8
2019-09-08 01:00,50.6304616666667,-96.98078,2.9,4.0,323,995.98,13.6,60,17.13,0.0,1022.70,328.9
2019-09-08 01:10,50.6304933333333,-96.980765,3.4,5.1,318,995.94,13.3,59,17.14,0.0,1022.66,328.9
2019-09-08 01:20,50.6304516666667,-96.9807616666667,3.7,5.3,320,995.97,13.1,60,17.14,0.0,1022.71,328.9
2019-09-08 01:30,50.63045,-96.98077,4.0,5.6,318,996.01,13.0,61,17.14,0.0,1022.76,328.9
2019-09-08 01:40,50.6304483333333,-96.9807683333333,4.1,5.7,315,996.11,12.8,61,17.14,0.0,1022.86,328.9
2019-09-08 01:50,50.6304483333333,-96.9807666666667,3.8,5.0,311,996.16,12.7,61,17.13,0.0,1022.91,328.9
2019-09-08 02:00,50.63045,-96.980765,3.8,5.2,311,996.15,12.6,60,17.13,0.0,1022.90,12.6
2019-09-08 02:10,50.6304433333333,-96.98077,3.8,4.8,310,996.16,12.6,60,17.13,0.0,1022.91,12.6
2019-09-08 02:20,50.630455,-96.9807683333333,4.1,4.9,309,996.16,12.5,60,17.13,0.0,1022.92,12.6
2019-09-08 02:30,50.630455,-96.9807733333333,4.0,5.6,303,996.22,12.4,62,17.13,0.0,1023.00,12.6
2019-09-08 02:40,50.6304566666667,-96.9807733333333,4.2,5.3,304,996.29,12.2,62,17.13,0.0,1023.10,12.6
2019-09-08 02:50,50.6304566666667,-96.9807716666667,3.5,4.9,303,996.29,12.0,64,17.13,0.0,1023.13,12.6
2019-09-08 03:00,50.6304566666667,-96.98077,3.8,5.2,304,996.28,11.9,64,17.12,0.0,1023.12,90.0
2019-09-08 03:10,50.630455,-96.98077,4.2,5.7,304,996.29,11.9,63,17.12,0.0,1023.14,90.0
2019-09-08 03:20,50.630455,-96.98077,3.6,5.4,296,996.38,11.5,66,17.11,0.0,1023.26,90.0
2019-09-08 03:30,50.630455,-96.98077,3.3,4.4,291,996.41,10.7,70,17.11,0.0,1023.34,90.0
2019-09-08 03:40,50.630455,-96.9807716666667,3.2,4.3,296,996.40,10.5,70,17.11,0.0,1023.35,90.0
2019-09-08 03:50,50.630455,-96.9807716666667,4.6,6.0,308,996.42,11.1,65,17.10,0.0,1023.34,90.0
2019-09-08 04:00,50.6304466666667,-96.9807816666667,5.0,6.5,309,996.47,11.7,62,17.10,0.0,1023.37,360.0
2019-09-08 04:10,50.6304583333333,-96.9807966666667,5.0,7.1,309,996.47,11.7,62,17.09,0.0,1023.37,360.0
2019-09-08 04:20,50.6304533333333,-96.9807783333333,5.0,6.9,313,996.44,11.5,63,17.09,0.0,1023.35,360.0
2019-09-08 04:30,50.630455,-96.98078,4.7,6.2,316,996.42,11.4,64,17.09,0.0,1023.34,360.0
2019-09-08 04:40,50.630455,-96.98078,4.0,5.7,317,996.37,11.3,65,17.09,0.0,1023.31,360.0
2019-09-08 04:50,50.6304566666667,-96.98078,3.8,4.9,314,996.33,11.2,66,17.08,0.0,1023.27,360.0
2019-09-08 05:00,50.630485,-96.9808,4.0,5.3,309,996.28,11.0,67,17.07,0.0,1023.23,323.0
2019-09-08 05:10,50.6304516666667,-96.9807833333333,4.6,6.1,305,996.25,10.8,67,17.06,0.0,1023.24,323.0
2019-09-08 05:20,50.6304616666667,-96.9807716666667,4.0,5.4,304,996.21,10.6,69,17.05,0.0,1023.24,323.0
2019-09-08 05:30,50.6304583333333,-96.9807733333333,3.5,5.0,305,996.11,10.1,73,17.04,0.0,1023.17,323.0
2019-09-08 05:40,50.6304566666667,-96.98078,3.1,4.5,309,996.02,10.1,75,17.04,0.0,1023.05,323.0
2019-09-08 05:50,50.6304533333333,-96.980775,2.2,3.5,313,995.96,10.3,77,17.05,0.0,1022.95,323.0
2019-09-08 06:00,50.6304033333333,-96.98075,2.2,3.2,307,995.94,10.2,78,17.06,0.0,1022.93,158.9
2019-09-08 06:10,50.63044,-96.9807666666667,2.4,3.3,301,995.93,9.6,80,17.05,0.0,1022.97,158.9
2019-09-08 06:20,50.630445,-96.98077,2.0,3.3,296,995.94,9.3,82,17.03,0.0,1022.99,158.9
2019-09-08 06:30,50.6304466666667,-96.9807733333333,2.6,3.2,278,995.91,8.7,83,17.01,0.0,1023.00,158.9
2019-09-08 06:40,50.630445,-96.9807716666667,2.9,3.8,290,995.84,8.3,86,17.00,0.0,1022.95,158.9
2019-09-08 06:50,50.6304466666667,-96.9807733333333,1.5,3.0,263,995.81,8.4,87,16.99,0.0,1022.93,158.9
2019-09-08 07:00,50.63041,-96.9807666666667,2.1,5.3,199,995.80,8.4,92,16.98,0.0,1022.92,161.5
2019-09-08 07:10,50.6304566666667,-96.9807733333333,3.3,4.4,186,995.68,9.0,95,16.95,0.0,1022.78,161.5
2019-09-08 07:20,50.6304583333333,-96.980765,5.1,7.3,185,995.64,9.5,92,16.92,0.0,1022.73,161.5
2019-09-08 07:30,50.6304583333333,-96.9808216666667,7.0,8.3,179,995.58,10.3,88,16.91,0.0,1022.64,161.5
2019-09-08 07:40,50.63044,-96.98082,7.3,9.0,179,995.63,10.0,87,16.90,0.0,1022.69,161.5
2019-09-08 07:50,50.6304683333333,-96.9808,7.1,8.9,179,995.76,9.8,88,16.88,0.0,1022.84,161.5
2019-09-08 08:00,50.6304533333333,-96.980785,7.0,9.2,191,995.89,9.5,88,16.86,0.0,1023.02,360.0
2019-09-08 08:10,50.6304533333333,-96.9807816666667,6.7,9.0,202,995.91,8.7,88,16.85,0.0,1023.10,360.0
2019-09-08 08:20,50.6304533333333,-96.9807783333333,6.7,9.1,205,995.95,8.1,89,16.84,0.0,1023.19,360.0
2019-09-08 08:30,50.6304533333333,-96.9807483333333,5.6,7.2,207,995.98,7.3,90,16.82,0.0,1023.28,360.0
2019-09-08 08:40,50.6304583333333,-96.980765,4.9,6.5,210,995.99,6.7,93,16.81,0.0,1023.32,360.0
2019-09-08 08:50,50.630455,-96.9807683333333,5.3,6.5,204,995.97,6.3,94,16.79,0.0,1023.32,360.0
2019-09-08 09:00,50.630445,-96.980755,6.0,7.7,201,995.89,6.5,96,16.78,0.0,1023.20,336.1
2019-09-08 09:10,50.6304433333333,-96.9807583333333,6.4,7.8,203,995.74,6.9,96,16.77,0.0,1023.00,336.1
2019-09-08 09:20,50.6304466666667,-96.980765,5.9,7.5,207,995.69,7.0,97,16.77,0.0,1022.91,336.1
2019-09-08 09:30,50.63045,-96.9807716666667,6.1,7.8,204,995.78,7.2,97,16.76,0.0,1023.00,336.1
2019-09-08 09:40,50.63045,-96.980775,6.5,8.8,207,995.80,7.5,96,16.75,0.0,1023.01,336.1
2019-09-08 09:50,50.6304483333333,-96.980795,6.3,9.3,216,995.76,7.6,95,16.75,0.0,1022.98,336.1
2019-09-08 10:00,50.63045,-96.9807633333333,5.2,7.1,221,995.77,7.2,95,16.75,0.0,1023.06,360.0
2019-09-08 10:10,50.6304483333333,-96.9807616666667,5.9,7.5,223,995.78,6.9,96,16.73,0.0,1023.11,360.0
2019-09-08 10:20,50.6304466666667,-96.980765,5.3,7.4,220,995.81,6.8,97,16.73,0.0,1023.18,360.0
2019-09-08 10:30,50.6304483333333,-96.980765,5.0,6.7,226,995.86,6.8,96,16.72,0.0,1023.27,360.0
2019-09-08 10:40,50.63045,-96.9807666666667,4.3,5.4,225,995.98,6.4,98,16.72,0.0,1023.42,360.0
2019-09-08 10:50,50.6304483333333,-96.9807666666667,4.2,5.4,227,996.00,6.3,99,16.71,0.0,1023.44,360.0
2019-09-08 11:00,50.6304483333333,-96.9807683333333,4.4,5.8,234,996.09,6.1,99,16.70,0.0,1023.53,111.5
2019-09-08 11:10,50.6304466666667,-96.9807683333333,4.5,6.0,234,996.16,6.1,99,16.70,0.0,1023.59,111.5
2019-09-08 11:20,50.6304366666667,-96.9807733333333,4.2,5.2,226,996.21,6.0,99,16.69,0.0,1023.64,111.5
2019-09-08 11:30,50.6304483333333,-96.9807766666667,3.9,5.1,221,996.21,5.9,99,16.69,0.0,1023.63,111.5
2019-09-08 11:40,50.63045,-96.9807766666667,3.4,4.9,216,996.20,6.1,99,16.69,0.0,1023.60,111.5
2019-09-08 11:50,50.63045,-96.9807783333333,3.5,5.4,217,996.23,6.1,99,16.70,0.0,1023.66,111.5
2019-09-08 12:00,50.6304483333333,-96.9807783333333,4.6,5.9,209,996.26,6.1,99,16.70,0.0,1023.70,287.7
2019-09-08 12:10,50.63045,-96.9807766666667,5.3,7.0,210,996.36,6.2,99,16.69,0.0,1023.80,287.7
2019-09-08 12:20,50.63047,-96.9807966666667,6.0,7.6,203,996.33,6.4,99,16.68,0.0,1023.77,287.7
2019-09-08 12:30,50.63046,-96.98079,5.2,6.5,202,996.23,6.5,99,16.65,0.0,1023.67,287.7
2019-09-08 12:40,50.6304533333333,-96.98079,5.0,7.2,202,996.22,6.6,99,16.62,0.0,1023.67,287.7
2019-09-08 12:50,50.6304483333333,-96.98079,4.4,5.9,201,996.20,6.9,99,16.60,0.0,1023.64,287.7
2019-09-08 13:00,50.6304483333333,-96.9807866666667,4.4,6.0,210,996.20,7.2,96,16.58,0.0,1023.62,252.3
2019-09-08 13:10,50.6304416666667,-96.9807966666667,4.7,6.0,221,996.20,7.4,94,16.57,0.0,1023.62,252.3
2019-09-08 13:20,50.6304433333333,-96.9807833333333,5.0,7.1,218,996.17,7.4,94,16.55,0.0,1023.59,252.3
2019-09-08 13:30,50.6304466666667,-96.9807833333333,4.8,6.4,208,996.06,7.7,94,16.53,0.0,1023.46,252.3
2019-09-08 13:40,50.6304416666667,-96.9807633333333,5.5,7.0,199,996.05,8.1,94,16.51,0.0,1023.42,252.3
2019-09-08 13:50,50.63044,-96.9807766666667,5.7,7.5,188,996.08,8.6,93,16.49,0.0,1023.43,252.3
2019-09-08 14:00,50.6304383333333,-96.98078,6.5,8.4,181,996.13,9.0,91,16.49,0.0,1023.46,248.5
2019-09-08 14:10,50.63044,-96.98078,6.4,9.1,180,996.09,9.3,86,16.47,0.0,1023.39,248.5
2019-09-08 14:20,50.63044,-96.98078,6.6,8.0,179,996.05,9.6,83,16.47,0.0,1023.33,248.5
2019-09-08 14:30,50.6304416666667,-96.9807816666667,7.1,8.7,180,996.00,10.1,79,16.47,0.0,1023.25,248.5
2019-09-08 14:40,50.6304416666667,-96.98078,6.3,8.2,188,995.98,10.5,75,16.48,0.0,1023.19,248.5
2019-09-08 14:50,50.63044,-96.9807733333333,5.8,8.2,185,995.90,10.9,75,16.50,0.0,1023.08,248.5
2019-09-08 15:00,50.6304416666667,-96.980775,6.1,8.3,175,995.89,11.3,73,16.51,0.0,1023.04,125.3
2019-09-08 15:10,50.630445,-96.980775,7.1,8.9,171,995.95,11.6,73,16.51,0.0,1023.09,125.3
2019-09-08 15:20,50.63045,-96.9807883333333,7.0,10.5,171,995.95,11.8,72,16.52,0.0,1023.06,125.3
2019-09-08 15:30,50.63046,-96.9807833333333,6.8,10.0,177,995.87,12.2,68,16.53,0.0,1022.94,125.3
2019-09-08 15:40,50.6304616666667,-96.9807816666667,7.5,10.3,175,995.77,12.5,67,16.54,0.0,1022.80,125.3
2019-09-08 15:50,50.6304483333333,-96.9807833333333,8.3,10.4,172,995.71,12.7,64,16.55,0.0,1022.71,125.3
2019-09-08 16:00,50.6304666666667,-96.9807816666667,8.6,11.0,168,995.67,12.9,62,16.57,0.0,1022.65,360.0
2019-09-08 16:10,50.630455,-96.98078,7.6,11.8,181,995.62,13.1,61,16.59,0.0,1022.56,360.0
2019-09-08 16:20,50.6304533333333,-96.980785,7.7,12.3,188,995.51,13.3,59,16.61,0.0,1022.42,360.0
2019-09-08 16:30,50.63044,-96.9807866666667,8.1,11.3,179,995.43,13.4,59,16.62,0.0,1022.32,360.0
2019-09-08 16:40,50.6304383333333,-96.98079,7.0,10.8,188,995.28,13.7,58,16.64,0.0,1022.13,360.0
2019-09-08 16:50,50.6304566666667,-96.98077,7.6,10.9,188,995.13,13.8,58,16.66,0.0,1021.96,360.0
2019-09-08 17:00,50.630445,-96.9807716666667,8.7,12.7,159,994.91,13.7,61,16.68,0.0,1021.72,90.0
2019-09-08 17:10,50.6304516666667,-96.9807733333333,7.8,13.4,155,994.69,13.8,62,16.69,0.0,1021.47,90.0
2019-09-08 17:20,50.63045,-96.98077,10.1,13.7,136,994.45,13.7,66,16.71,0.0,1021.22,90.0
2019-09-08 17:30,50.63045,-96.980775,10.5,14.0,130,994.32,13.9,67,16.73,0.0,1021.06,90.0
2019-09-08 17:40,50.63045,-96.9807766666667,11.2,15.3,134,994.20,13.8,67,16.76,0.0,1020.92,90.0
2019-09-08 17:50,50.630435,-96.9808,11.5,14.3,133,994.07,13.8,67,16.77,0.0,1020.78,90.0
2019-09-08 18:00,50.63044,-96.9807916666667,11.9,14.5,134,993.95,14.0,67,16.77,0.0,1020.65,270.0
2019-09-08 18:10,50.63044,-96.9808016666667,11.9,14.9,133,993.89,14.1,65,16.79,0.0,1020.57,270.0
2019-09-08 18:20,50.6304416666667,-96.9807783333333,11.4,15.1,133,993.96,14.3,64,16.81,0.0,1020.62,270.0
2019-09-08 18:30,50.6304483333333,-96.980775,11.8,16.4,134,993.91,14.6,62,16.83,0.0,1020.55,270.0
2019-09-08 18:40,50.6304516666667,-96.98078,11.9,16.8,132,993.90,14.7,62,16.85,0.0,1020.53,270.0
2019-09-08 18:50,50.630445,-96.980795,11.2,14.8,140,993.88,14.6,61,16.88,0.0,1020.52,270.0
2019-09-08 19:00,50.6304533333333,-96.98079,12.6,16.2,136,993.75,15.0,59,16.91,0.0,1020.36,360.0
2019-09-08 19:10,50.630455,-96.9807883333333,12.9,17.0,127,993.70,15.5,59,16.94,0.0,1020.29,360.0
2019-09-08 19:20,50.6304566666667,-96.9807866666667,7.3,14.4,177,993.72,15.8,52,16.95,0.0,1020.28,360.0
2019-09-08 19:30,50.6304566666667,-96.980785,9.8,14.7,182,993.69,16.3,48,16.96,0.0,1020.24,360.0
2019-09-08 19:40,50.6304566666667,-96.9807816666667,9.0,13.7,166,993.55,16.1,50,16.98,0.0,1020.10,360.0
2019-09-08 19:50,50.63047,-96.9807716666667,11.0,16.0,175,993.36,16.3,48,17.01,0.0,1019.88,360.0
2019-09-08 20:00,50.630455,-96.98079,6.0,12.0,165,993.43,16.1,52,17.06,0.0,1019.97,310.6
2019-09-08 20:10,50.6304266666667,-96.9807583333333,8.0,13.8,163,993.29,16.5,49,17.10,0.0,1019.80,310.6
2019-09-08 20:20,50.63045,-96.9807766666667,8.9,17.6,163,993.27,16.7,48,17.14,0.0,1019.75,310.6
2019-09-08 20:30,50.63045,-96.980775,12.6,17.0,144,993.17,16.0,56,17.17,0.0,1019.68,310.6
2019-09-08 20:40,50.6304466666667,-96.9807733333333,12.2,16.4,138,993.15,16.1,56,17.18,0.0,1019.65,310.6
2019-09-08 20:50,50.6304483333333,-96.9807766666667,11.3,15.4,133,993.17,16.4,56,17.17,0.0,1019.65,310.6
2019-09-08 21:00,50.630455,-96.9807816666667,11.2,15.6,136,993.07,16.4,55,17.17,0.0,1019.52,41.3
2019-09-08 21:10,50.630455,-96.9807783333333,8.0,14.3,144,993.09,16.6,55,17.16,0.0,1019.52,41.3
2019-09-08 21:20,50.6304516666667,-96.980775,11.2,14.5,133,992.98,16.8,53,17.16,0.0,1019.37,41.3
2019-09-08 21:30,50.63044,-96.980775,10.4,13.7,142,992.96,16.7,54,17.17,0.0,1019.36,41.3
2019-09-08 21:40,50.6304433333333,-96.98078,11.6,13.6,141,992.90,16.7,53,17.17,0.0,1019.29,41.3
2019-09-08 21:50,50.630445,-96.9807783333333,10.1,14.8,136,992.92,16.9,53,17.18,0.0,1019.31,41.3
2019-09-08 22:00,50.6304466666667,-96.9807783333333,10.9,14.3,133,992.79,17.0,53,17.17,0.0,1019.15,131.7
2019-09-08 22:10,50.6304483333333,-96.9807783333333,9.9,13.3,143,992.68,16.9,53,17.18,0.0,1019.03,131.7
2019-09-08 22:20,50.6304316666667,-96.9807683333333,10.4,13.9,128,992.54,17.4,55,17.18,0.0,1018.90,131.7
2019-09-08 22:30,50.63045,-96.98077,9.2,12.5,158,992.53,17.1,49,17.19,0.0,1018.90,131.7
2019-09-08 22:40,50.6304533333333,-96.98077,9.6,13.4,135,992.43,17.3,54,17.20,0.0,1018.78,131.7
2019-09-08 22:50,50.6304533333333,-96.9807716666667,10.0,17.9,144,992.26,17.0,54,17.21,0.0,1018.61,131.7
2019-09-08 23:00,50.6304533333333,-96.9807733333333,11.4,14.6,131,992.20,17.3,54,17.22,0.0,1018.53,90.0
2019-09-08 23:10,50.630475,-96.980785,11.3,14.7,135,992.12,17.0,55,17.23,0.0,1018.45,90.0
2019-09-08 23:20,50.6304616666667,-96.980785,11.1,14.3,140,992.13,17.0,53,17.23,0.0,1018.47,90.0
2019-09-08 23:30,50.6304616666667,-96.9807833333333,11.5,13.9,143,992.12,17.0,53,17.23,0.0,1018.46,90.0
2019-09-08 23:40,50.6304583333333,-96.9807816666667,11.2,14.3,148,992.07,17.0,53,17.21,0.0,1018.40,90.0
2019-09-08 23:50,50.6304583333333,-96.9807933333333,11.3,13.2,146,992.06,17.0,52,17.21,0.0,1018.38,90.0
